Preview of NWS' New Version of Forecast
This preview is not operational and should not be used for support decisions.

Regional Weather Roundup (RWR)

Issued by National Weather Service (NWS)

                            
000
ASUS43 KTOP 251959
RWRKS 

WEATHER ROUNDUP FOR KANSAS
NATIONAL WEATHER SERVICE GOODLAND KS
300 PM CDT SUN AUG 25 2019

NOTE:  "FAIR" INDICATES FEW OR NO CLOUDS BELOW 12,000 FEET WITH NO
SIGNIFICANT WEATHER AND/OR OBSTRUCTIONS TO VISIBILITY.

KSZ001>006-013>018-027>032-041>047-252100-
NORTHWEST KANSAS
  
CITY           SKY/WX    TMP DP  RH WIND       PRES   REMARKS
GOODLAND       SUNNY     80  68  66 S10       29.87F                  
HAYS           MOSUNNY   80  69  69 S14       29.73F                  
HILL CITY      SUNNY     81  69  67 S13       29.84F                  
RUSSELL        SUNNY     80  68  66 S14G24    29.82F                  
$$

KSZ061>065-074>080-084>089-252100-
SOUTHWEST KANSAS
  
CITY           SKY/WX    TMP DP  RH WIND       PRES   REMARKS
DODGE CITY     MOSUNNY   86  67  52 S17G28    29.85F                  
GARDEN CITY    MOSUNNY   82  68  62 S14G25    29.85F                  
GREAT BEND     SUNNY     79  70  74 S14       29.83F                  
LIBERAL        SUNNY     87  70  56 SE10      29.87F                  
$$

KSZ066>073-081>083-090>101-252100-
SOUTHEAST KANSAS
  
CITY           SKY/WX    TMP DP  RH WIND       PRES   REMARKS
CHANUTE        PTSUNNY   76  66  71 S5        29.85F                  
COFFEYVILLE    MOSUNNY   76  67  73 VRB3      29.84F                  
HUTCHINSON     CLOUDY    80  69  69 S5        29.84F                  
NEWTON         MOSUNNY   79  70  74 SW5       29.85F                  
PARSONS        CLOUDY    75  68  78 VRB5      29.86F                  
WICHITA INTL   PTSUNNY   78  68  71 S9        29.85S                  
WICHITA MCCONL PTSUNNY   76  65  69 S8        29.85F                  
WINFIELD       SUNNY     75  67  76 CALM      29.86F                  
$$

KSZ007>012-019>026-033>040-048>060-102>105-252100-
NORTHEAST KANSAS
  
CITY           SKY/WX    TMP DP  RH WIND       PRES   REMARKS
CONCORDIA      CLOUDY    75  67  76 CALM      29.85F                  
EMPORIA        CLOUDY    73  67  81 NE5       29.84F                  
LAWRENCE       CLOUDY    76  67  73 VRB5      29.83F                  
MANHATTAN      PTSUNNY   77  64  64 S3        29.83F                  
OLATHE IND     CLOUDY    68  66  93 W5        29.85F FOG              
OLATHE EXE     LGT RAIN  68  67  96 W3        29.84F                  
SALINA         MOSUNNY   77  67  71 NE5       29.83F                  
TOPEKA BILLARD CLOUDY    74  66  76 NE5       29.84F                  
TOPEKA FORBES  CLOUDY    74  65  73 SE6       29.84F                  
$$